User: anonymous   Login
Location: Unspecified
(0.0000°N, 0.0000°E)
Time: 05:18:31
(UTC+02:00)
Language:

Cosmos 1703 - Orbit

View from above orbital plane
View from above orbital plane
View from above satellite
View from above satellite

Ground track
Ground track

The orbit data is extracted from the following two-line orbital elements,

1 16262U 85108A   16145.04990681  .00000824  00000-0  49295-4 0  9990
2 16262  82.4740 271.9408 0009653 167.2907 192.8568 15.09698428660171
Epoch (UTC): 24 May 2016 01:11:51
Eccentricity: 0.0009653
inclination: 82.4740°
perigee height: 530 km
apogee height: 544 km
right ascension of ascending node: 271.9408°
argument of perigee: 167.2907°
revolutions per day: 15.09698428
mean anomaly at epoch: 192.8568°
orbit number at epoch: 66017

The dashed part of the orbit path shows where the satellite is in the earth's shadow,  

DLR